Total_Precipitation_Accumulation
0.07 0.27 0.70 0.99 1.39 1.79 1.64 1.16 0.93 0.66 0.54 0.56 0.46 0.45 0.55 0.84 1.29 2.39 2.72 2.11 1.44 1.34 1.55 1.72 1.73 1.69 1.60 1.58 1.77 1.85 1.85 1.86 1.92 2.06 2.17 2.26 2.27 2.16 2.06 2.09 2.15 2.27 2.32 2.39 2.58 2.68 2.67 2.58 2.60
0.15 0.41 0.79 1.14 1.57 1.89 1.57 0.95 0.68 0.57 0.48 0.50 0.46 0.47 0.68 0.79 0.88 1.56 1.99 1.74 1.19 1.11 1.29 1.43 1.56 1.48 1.38 1.42 1.48 1.61 1.71 1.68 1.79 2.06 2.17 2.25 2.20 2.11 2.06 1.99 2.05 2.22 2.38 2.52 2.54 2.47 2.32 2.12 2.10
0.24 0.45 0.83 1.17 1.29 1.40 1.21 0.80 0.58 0.48 0.50 0.64 0.64 0.55 0.87 0.99 0.93 1.42 1.66 1.21 0.96 1.05 1.27 1.42 1.36 1.23 1.12 1.08 1.17 1.37 1.53 1.66 1.79 1.92 1.97 2.01 1.99 2.04 1.98 1.91 2.02 2.26 2.67 2.78 2.57 2.32 2.05 1.88 1.79
0.27 0.48 0.69 0.85 0.79 0.69 0.68 0.59 0.49 0.44 0.46 0.57 0.68 0.77 1.05 1.00 0.92 1.17 1.24 0.97 0.82 0.96 1.02 1.07 1.14 1.04 0.98 0.98 1.05 1.19 1.32 1.52 1.71 1.77 1.83 1.95 2.02 2.03 1.97 2.00 2.17 2.46 2.77 2.71 2.49 2.25 1.98 1.84 1.71
0.33 0.51 0.69 0.71 0.67 0.60 0.52 0.47 0.42 0.47 0.52 0.59 0.66 0.98 1.27 1.17 0.96 0.98 1.01 0.85 0.69 0.71 0.74 0.77 0.89 0.89 0.91 0.90 0.97 1.13 1.32 1.50 1.52 1.65 1.97 2.12 2.10 2.10 2.14 2.21 2.41 2.52 2.56 2.48 2.40 2.17 1.99 1.85 1.80
0.39 0.45 0.50 0.62 0.62 0.57 0.48 0.38 0.32 0.39 0.54 0.70 0.78 1.00 1.47 1.40 1.10 0.97 0.78 0.74 0.62 0.57 0.68 0.78 0.87 0.87 0.86 0.87 0.99 1.17 1.34 1.45 1.50 1.66 1.90 2.04 2.03 2.06 2.19 2.32 2.46 2.45 2.42 2.30 2.16 1.95 1.90 1.86 1.82
0.33 0.31 0.30 0.40 0.48 0.47 0.43 0.37 0.31 0.35 0.53 0.72 0.77 1.14 1.60 1.69 1.28 0.94 0.79 0.79 0.81 0.74 0.82 0.96 1.01 1.02 1.07 1.16 1.23 1.34 1.46 1.55 1.65 1.74 1.77 1.86 1.97 2.04 2.17 2.33 2.42 2.41 2.30 2.07 2.00 1.95 1.91 1.83 1.73
0.21 0.22 0.22 0.26 0.32 0.44 0.39 0.31 0.30 0.39 0.44 0.53 0.69 1.08 1.49 1.50 1.26 1.14 1.25 1.23 1.30 1.11 1.02 1.07 1.20 1.33 1.27 1.29 1.45 1.53 1.59 1.61 1.64 1.67 1.76 1.89 2.10 2.20 2.33 2.39 2.56 2.59 2.37 2.05 2.14 2.06 1.84 1.75 1.71
0.13 0.27 0.28 0.21 0.23 0.28 0.25 0.29 0.29 0.27 0.33 0.46 0.64 0.89 1.14 1.12 1.15 1.44 1.77 1.65 1.62 1.46 1.23 1.12 1.06 1.21 1.36 1.39 1.43 1.61 1.67 1.71 1.79 1.95 2.05 2.24 2.44 2.43 2.77 2.83 3.05 3.01 2.65 2.40 2.43 2.25 2.02 1.81 1.74
0.09 0.23 0.18 0.11 0.10 0.14 0.17 0.24 0.26 0.31 0.54 0.83 0.99 1.10 1.23 1.50 1.55 1.69 1.78 1.69 1.68 1.64 1.43 1.31 1.26 1.21 1.33 1.36 1.58 1.94 1.83 1.93 2.12 2.43 2.56 2.79 2.93 2.96 2.69 3.21 3.63 3.56 3.32 3.03 2.99 2.77 2.33 1.95 1.87
0.06 0.10 0.10 0.10 0.07 0.09 0.14 0.16 0.20 0.33 0.73 1.12 1.40 1.49 1.55 1.83 2.04 2.05 2.10 2.11 2.02 1.95 1.71 1.50 1.47 1.51 1.49 1.63 1.63 1.90 2.15 2.38 2.48 2.55 2.65 2.90 2.87 2.81 2.86 3.36 3.69 3.66 3.49 3.41 3.54 3.27 2.72 2.61 2.73
0.03 0.03 0.05 0.06 0.05 0.06 0.09 0.13 0.22 0.47 0.92 1.11 1.38 1.57 1.61 2.01 2.13 2.13 2.58 2.68 2.27 2.01 1.99 1.90 1.82 1.81 1.85 1.73 1.90 1.94 2.03 2.25 2.46 2.65 2.64 2.79 3.17 3.21 3.26 3.54 3.50 3.56 3.55 3.87 3.68 3.74 3.44 3.08 2.82
0.02 0.03 0.04 0.04 0.04 0.04 0.06 0.13 0.24 0.47 0.73 0.86 1.08 1.26 1.31 1.83 2.16 2.41 2.92 2.87 2.56 2.37 2.32 2.19 2.13 2.19 2.18 2.19 2.25 2.06 2.17 2.29 2.41 2.63 2.80 2.81 3.09 3.28 3.43 3.57 3.53 3.14 3.09 3.39 3.67 3.56 3.63 3.55 3.31
0.02 0.04 0.06 0.05 0.05 0.06 0.07 0.16 0.31 0.54 0.67 0.92 0.95 1.14 1.39 1.79 2.08 2.49 2.81 3.04 2.90 2.68 2.53 2.37 2.35 2.44 2.51 2.53 2.63 2.58 2.39 2.51 2.47 2.75 2.80 2.85 2.97 3.22 3.52 3.63 3.59 3.20 3.05 3.25 3.45 3.35 3.66 3.58 3.53
0.03 0.08 0.12 0.10 0.08 0.09 0.10 0.32 0.58 0.66 0.77 0.96 1.14 1.27 1.51 1.87 2.36 2.62 2.86 3.14 3.15 3.10 2.94 2.72 2.65 2.80 3.03 3.17 3.18 3.07 2.86 2.62 2.63 2.76 2.81 2.92 2.95 3.24 3.31 3.33 3.36 3.33 3.12 3.24 3.33 3.35 3.52 3.37 3.22
0.07 0.10 0.17 0.17 0.13 0.12 0.20 0.67 0.79 0.66 0.85 1.10 1.22 1.46 1.76 2.17 2.58 3.05 3.19 3.09 3.11 3.25 3.22 2.94 2.73 3.18 3.56 3.66 3.69 3.48 3.20 2.83 2.76 2.82 2.91 3.02 3.12 3.27 3.46 3.22 3.13 3.44 3.33 3.44 3.76 3.68 3.77 3.89 3.71
0.12 0.18 0.17 0.20 0.17 0.16 0.29 0.81 0.78 0.58 0.72 0.96 1.20 1.44 1.88 2.41 2.74 2.89 2.93 3.13 3.27 3.35 3.33 3.28 3.38 3.52 3.69 3.78 3.91 3.69 3.46 3.23 2.97 2.88 2.89 3.00 3.13 3.26 3.62 3.49 3.53 3.56 3.57 3.61 3.25 3.78 4.09 4.16 3.99
0.15 0.15 0.19 0.20 0.18 0.22 0.32 0.59 0.67 0.68 0.85 0.98 1.29 1.52 1.69 2.09 2.56 2.65 2.77 3.22 3.31 3.48 3.62 3.56 3.68 3.86 4.14 4.34 4.53 4.17 3.80 3.52 3.24 3.05 3.10 3.16 3.37 3.50 3.81 3.70 3.64 3.56 3.71 3.71 3.69 4.13 4.10 3.84 3.87
0.06 0.12 0.22 0.20 0.19 0.26 0.38 0.58 0.77 0.85 1.01 1.31 1.53 1.55 1.53 1.84 2.34 2.72 3.03 3.16 3.49 3.69 3.86 3.86 4.11 4.54 4.88 4.73 4.41 4.24 4.00 3.77 3.55 3.28 3.19 3.24 3.24 3.42 3.78 3.61 3.86 3.79 3.65 3.57 3.54 3.89 3.99 3.71 3.90
0.04 0.09 0.19 0.21 0.20 0.32 0.49 0.72 0.87 1.07 1.28 1.37 1.31 1.32 1.48 1.87 2.38 2.77 3.05 3.19 3.45 3.72 4.15 4.28 4.48 4.87 5.02 4.87 4.74 4.59 4.44 4.04 3.91 3.78 3.63 3.25 3.07 3.19 3.23 3.55 3.36 3.46 3.64 3.53 3.64 3.96 3.86 3.49 3.96
0.06 0.11 0.18 0.18 0.26 0.43 0.57 1.02 1.18 1.31 1.42 1.40 1.34 1.54 1.57 1.66 2.09 2.37 2.50 2.68 2.86 3.01 3.27 3.56 4.06 4.59 4.81 4.88 4.78 4.73 4.74 4.28 4.02 3.89 3.72 3.35 3.07 2.97 3.10 3.26 3.33 3.40 3.32 3.44 3.65 3.73 3.78 3.69 3.82
0.08 0.10 0.11 0.14 0.26 0.55 0.65 1.30 1.49 1.66 1.75 1.61 1.53 1.47 1.47 1.71 2.03 2.04 1.88 2.04 2.30 2.29 2.60 3.02 3.49 3.86 4.11 4.21 4.22 4.26 4.22 4.14 4.05 3.91 3.55 3.31 3.07 2.94 3.01 3.13 3.20 3.26 3.09 3.24 3.08 3.21 3.70 3.82 3.65
0.07 0.10 0.12 0.17 0.29 0.54 0.59 0.99 1.51 1.86 2.01 1.63 1.53 1.39 1.46 1.69 1.72 1.68 1.70 1.82 1.97 2.13 2.44 2.76 3.09 3.39 3.57 3.68 3.77 3.89 3.78 3.80 3.70 3.54 3.34 3.13 2.98 2.84 2.61 2.73 2.98 3.06 2.93 2.85 2.87 3.12 3.26 3.23 3.25
0.06 0.13 0.20 0.28 0.50 0.90 0.77 0.88 1.43 1.78 1.63 1.42 1.35 1.14 1.25 1.44 1.52 1.57 1.66 1.78 1.91 2.21 2.56 2.85 3.09 3.33 3.40 3.20 3.10 3.14 3.20 3.27 3.22 3.08 2.91 2.70 2.65 2.57 2.40 2.44 2.71 2.81 2.77 2.71 2.68 2.76 2.82 2.88 2.93
0.10 0.23 0.69 1.12 1.45 1.35 0.84 0.94 1.54 1.42 1.08 1.00 1.09 1.07 1.07 1.11 1.25 1.36 1.54 1.74 1.92 2.04 2.13 2.57 3.00 3.18 3.09 2.84 2.66 2.59 2.74 2.86 2.79 2.68 2.61 2.52 2.40 2.34 2.33 2.36 2.50 2.52 2.48 2.43 2.50 2.57 2.61 2.77 2.88
0.15 0.27 0.77 1.08 1.17 1.15 0.94 1.34 1.83 1.42 0.97 0.83 0.93 0.91 0.80 0.76 0.74 0.82 1.00 1.11 1.26 1.31 1.34 1.51 1.79 2.04 2.12 2.03 2.05 2.11 2.15 2.23 2.24 2.44 2.29 2.28 2.22 2.11 2.16 2.13 2.13 2.15 2.16 2.14 2.46 2.50 2.62 2.79 2.87
0.26 0.31 0.33 0.56 0.78 1.17 1.20 1.42 1.52 1.24 0.97 0.92 1.00 0.90 0.72 0.68 0.64 0.71 0.81 0.86 0.95 0.98 1.02 1.17 1.41 1.65 1.70 1.72 1.77 1.82 1.84 1.88 1.92 1.99 1.95 1.92 1.98 1.94 1.95 1.94 2.07 2.06 2.11 2.25 2.44 2.45 2.52 2.79 2.85
0.22 0.30 0.46 0.73 0.99 1.15 1.26 1.63 1.80 1.60 1.32 1.14 1.08 0.96 0.74 0.62 0.60 0.67 0.78 0.81 0.91 1.02 1.16 1.29 1.40 1.50 1.51 1.51 1.53 1.49 1.59 1.61 1.67 1.67 1.61 1.64 1.71 1.73 1.77 1.80 1.88 1.94 1.98 2.12 2.35 2.35 2.42 2.58 2.64
0.26 0.34 0.50 0.68 0.74 0.97 1.38 1.55 1.31 1.26 1.23 1.29 1.24 1.04 0.81 0.63 0.58 0.63 0.74 0.80 0.86 0.99 1.13 1.28 1.36 1.46 1.43 1.39 1.47 1.53 1.55 1.59 1.57 1.54 1.47 1.54 1.62 1.67 1.69 1.76 1.85 1.89 1.93 2.09 2.25 2.23 2.33 2.33 2.36
0.24 0.35 0.51 0.77 0.82 0.85 1.03 1.23 0.85 0.86 0.96 1.04 1.05 0.84 0.67 0.60 0.60 0.66 0.77 0.81 0.95 1.02 1.09 1.12 1.22 1.34 1.35 1.38 1.50 1.70 1.68 1.68 1.65 1.52 1.47 1.52 1.53 1.56 1.61 1.71 1.80 1.79 1.90 2.10 2.19 2.18 2.32 2.39 2.37